Location: Rumah Apan
(2.7833°N, 113.9500°E)
Time: 16:42:26
(UTC+00:00)

Cosmos 1833 Rocket - Pass Details

Date: 25 July 2021
Orbit: 834 x 838 km, 71.0° (Epoch: 17 September)

Event Time Altitude Azimuth Distance (km) Brightness Sun altitude
Rises 11:22:17 0° 189° (S) 3,384 5.7 -11.2°
Reaches altitude 10° 11:24:45 10° 185° (S) 2,449 5.0 -11.7°
Maximum altitude 11:30:18 62° 105° (ESE) 935 2.6 -13.0°
Drops below altitude 10° 11:35:49 10° 25° (NNE) 2,441 5.1 -14.3°
Sets 11:38:16 0° 22° (NNE) 3,373 5.8 -14.9°
